Location: Unspecified
(50.7693°N, 0.0000°E)
Time: 07:23:12
(UTC+00:00)

Transit 4A - Pass Details

Date: 30 June 2019
Orbit: 862 x 982 km, 66.8° (Epoch: 19 July)

Event Time Altitude Azimuth Distance (km) Brightness Sun altitude
Rises 06:42:20 0° 211° (SSW) 3,628 10.6 23.7°
Reaches altitude 10° 06:44:51 10° 211° (SSW) 2,698 10.1 24.1°
Maximum altitude 06:51:12 82° 124° (SE) 994 8.6 25.1°
Drops below altitude 10° 06:57:39 10° 39° (NE) 2,746 11.1 26.2°
Sets 07:00:14 0° 38° (NE) 3,696 11.6 26.6°
